Weather History for Orange, MA

Change the Weather History Date:

Wednesday, August 28, 2013

  Actual Average Record
Temperature  
Mean Temperature 73 °F -  
Max Temperature 84 °F 76 °F 88 °F (2004)
Min Temperature 64 °F 52 °F 46 °F (2010)
Cooling Degree Days 8    
Growing Degree Days 23 (Base 50)    
Moisture  
Dew Point 67 °F    
Average Humidity 87    
Maximum Humidity 100    
Minimum Humidity 49    
Precipitation  
Precipitation 0.01 in - - ()
Sea Level Pressure  
Sea Level Pressure 29.90 in    
Wind  
Wind Speed 1 mph (South)    
Max Wind Speed 9 mph    
Max Gust Speed -    
Visibility 6 miles    
Events Fog , Rain , Thunderstorm    
Averages and records for this station are not official NWS values.
T = Trace of Precipitation, MM = Missing Value Source: NWS Daily Summary

Daily Weather History Graph

Daily Weather History Graph

Search for Another Location

Airport:

Trip Planner

Search our weather history database for the weather conditions in past years. The results will help you decide how hot, cold, wet, or windy it might be!

Date:

Astronomy

Aug. 28, 2013 Rise Set
Actual Time 6:10 AM EDT 7:29 PM EDT
Civil Twilight 5:40 AM EDT 7:58 PM EDT
Nautical Twilight 5:05 AM EDT 8:33 PM EDT
Astronomical Twilight 4:28 AM EDT 9:11 PM EDT
Moon 11:56 PM EDT (8/28) 2:08 PM EDT (8/28)
Length of Visible Light 14h 18m
Length of Day
13h 19m
Waning Gibbous, 47% of the Moon is Illuminated
Aug 28
Waning Gibbous
Sep 5
New
Sep 12
First Quarter
Sep 19
Full
Sep 26
Last Quarter

Hourly Weather History & Observations

Time (EDT) Temp. Heat Index Dew Point Humidity Pressure Visibility Wind Dir Wind Speed Gust Speed Precip Events Conditions
12:12 AM 68.0 °F - 66.2 °F 94% 29.91 in 4.0 mi Calm Calm - N/A   Mostly Cloudy
12:28 AM 68.0 °F - 66.2 °F 94% 29.91 in 5.0 mi Calm Calm - N/A   Overcast
12:49 AM 68.0 °F - 68.0 °F 100% 29.91 in 1.8 mi Calm Calm - N/A   Overcast
12:52 AM 68.0 °F - 68.0 °F 100% 29.91 in 1.0 mi Calm Calm - N/A   Overcast
1:00 AM 68.0 °F - 66.2 °F 94% 29.91 in 0.5 mi Calm Calm - N/A Fog Fog
1:52 AM 66.9 °F - 66.9 °F 100% 29.89 in 0.2 mi Calm Calm - N/A Fog Fog
2:52 AM 66.9 °F - 66.9 °F 100% 29.88 in 0.2 mi Calm Calm - N/A Fog Fog
3:52 AM 66.0 °F - 66.0 °F 100% 29.88 in 0.5 mi Calm Calm - N/A Fog Fog
4:52 AM 66.0 °F - 64.9 °F 96% 29.88 in 0.5 mi Calm Calm - N/A Fog Fog
5:52 AM 64.9 °F - 64.9 °F 100% 29.89 in 0.2 mi Calm Calm - N/A Fog Fog
6:52 AM 64.9 °F - 64.9 °F 100% 29.90 in 0.2 mi Calm Calm - N/A Fog Fog
7:52 AM 66.0 °F - 66.0 °F 100% 29.91 in 0.2 mi Calm Calm - N/A Fog Fog
8:29 AM 66.2 °F - 66.2 °F 100% 29.91 in 1.2 mi Calm Calm - N/A   Overcast
8:33 AM 66.2 °F - 66.2 °F 100% 29.91 in 2.0 mi Calm Calm - N/A   Overcast
8:52 AM 66.9 °F - 66.0 °F 97% 29.91 in 5.0 mi Calm Calm - N/A   Overcast
9:21 AM 68.0 °F - 66.2 °F 94% 29.92 in 2.0 mi Calm Calm - N/A   Overcast
9:31 AM 68.0 °F - 66.2 °F 94% 29.92 in 5.0 mi Calm Calm - N/A   Overcast
9:52 AM 71.1 °F - 68.0 °F 90% 29.91 in 9.0 mi Calm Calm - N/A   Overcast
10:08 AM 71.6 °F - 68.0 °F 88% 29.91 in 10.0 mi Calm Calm - N/A   Scattered Clouds
10:52 AM 75.9 °F - 70.0 °F 82% 29.91 in 10.0 mi Calm Calm - N/A   Clear
11:52 AM 81.0 °F 84.1 °F 69.1 °F 67% 29.89 in 10.0 mi SW 3.5 mph - N/A   Clear
12:52 PM 81.0 °F 83.3 °F 66.9 °F 62% 29.88 in 10.0 mi SE 3.5 mph - N/A   Mostly Cloudy
1:52 PM 81.0 °F 83.8 °F 68.0 °F 65% 29.87 in 10.0 mi Calm Calm - N/A   Scattered Clouds
2:52 PM 81.0 °F 83.3 °F 66.9 °F 62% 29.86 in 10.0 mi SE 8.1 mph - N/A   Overcast
3:11 PM 82.4 °F 84.6 °F 66.2 °F 58% 29.86 in 10.0 mi SSE 6.9 mph - N/A Thunderstorm Mostly Cloudy
3:52 PM 82.9 °F 83.7 °F 62.1 °F 49% 29.86 in 10.0 mi Calm Calm - N/A Thunderstorm Thunderstorm
4:13 PM 77.0 °F - 68.0 °F 74% 29.87 in 10.0 mi North 9.2 mph - 0.00 in Rain Light Rain
4:52 PM 75.9 °F - 70.0 °F 82% 29.87 in 10.0 mi Calm Calm - 0.01 in   Mostly Cloudy
5:32 PM 75.2 °F - 69.8 °F 83% 29.86 in 10.0 mi Calm Calm - N/A Thunderstorm Scattered Clouds
5:47 PM 77.0 °F - 69.8 °F 78% 29.87 in 10.0 mi SSW 4.6 mph - N/A   Mostly Cloudy
5:52 PM 77.0 °F - 71.1 °F 82% 29.87 in 10.0 mi WSW 4.6 mph - N/A   Mostly Cloudy
6:01 PM 75.2 °F - 69.8 °F 83% 29.88 in 10.0 mi South 3.5 mph - N/A Thunderstorm Mostly Cloudy
6:40 PM 75.2 °F - 69.8 °F 83% 29.90 in 10.0 mi South 5.8 mph - N/A   Scattered Clouds
6:52 PM 73.9 °F - 69.1 °F 85% 29.90 in 10.0 mi SSW 5.8 mph - N/A   Scattered Clouds
7:52 PM 72.0 °F - 64.9 °F 78% 29.91 in 10.0 mi Calm Calm - N/A   Mostly Cloudy
8:52 PM 69.1 °F - 66.0 °F 90% 29.93 in 10.0 mi East 4.6 mph - N/A   Partly Cloudy
9:52 PM 68.0 °F - 66.0 °F 93% 29.94 in 10.0 mi Calm Calm - N/A   Clear
10:52 PM 66.9 °F - 64.9 °F 93% 29.95 in 10.0 mi Calm Calm - N/A   Clear
11:52 PM 68.0 °F - 66.0 °F 93% 29.96 in 10.0 mi Calm Calm - N/A   Mostly Cloudy